Regional Weather Roundup
Issued by NWS State College, PA

Home | Current Version | Previous Version | Text Only | Print | Product List | Glossary Off
Versions: 1 2 3 4 5 6 7 8 9 10 11 12 13 14 15 16 17 18 19 20 21 22 23 24 25 26 27 28 29 30 31 32 33 34 35 36 37 38 39 40 41 42 43 44 45 46 47 48 49 50

000
ASUS41 KCTP 011410
RWRCTP

REGIONAL WEATHER ROUNDUP
NATIONAL WEATHER SERVICE STATE COLLEGE PA
900 AM EST SUN MAR 01 2015

Note: "fair" indicates few or no clouds below 12,000 feet with no
significant weather and/or obstructions to visibility.

* = STATION THAT DOES NOT REPORT PRECIPITATION /E.G. RAIN...SNOW...ETC/
    THUNDER OR FOG.

PAZ002>004-007>009-013>016-020>023-029>032-011500-
WESTERN PENNSYLVANIA

CITY           SKY/WX    TMP DP  RH WIND       PRES   REMARKS
ERIE           LGT SNOW  23  18  81 S5        30.39F
MEADVILLE      LGT SNOW  21  17  84 CALM      30.34F
FRANKLIN*      CLOUDY    21  18  86 S7        30.35F WCI  13
NEW CASTLE     LGT SNOW  23  21  93 CALM      30.38F FOG
BEAVER COUNTY  LGT SNOW  23  21  93 CALM      30.36  VSB 1
BUTLER*        CLOUDY    25  21  86 CALM      30.38S VSB 1
PITTSBURGH INT LGT SNOW  30  28  92 S6        30.37S VSB 1
PITTSBURGH     LGT SNOW  30  27  88 S14       30.37S VSB 3/4
INDIANA*       FOG       30  28  93 S5        30.40S VSB 1/2
LATROBE        LGT SNOW  32  32 100 SW7       30.40S
WASHINGTON CO* CLOUDY    30  28  93 S5        30.40S VSB 1
$$

PAZ004>006-010>012-017>019-024>028-033>037-041-042-045-046-049>053-011500-
CENTRAL PENNSYLVANIA

CITY           SKY/WX    TMP DP  RH WIND       PRES   REMARKS
BRADFORD       LGT SNOW  18  13  80 SE7       30.31F WCI   9
DUBOIS         LGT SNOW  21  17  84 SE8       30.33F VSB 1   WCI  11
CLEARFIELD     LGT SNOW  19  15  84 N6        30.39F FOG     WCI  11
JOHNSTOWN      LGT SNOW  23  20  88 SW7       30.34S VSB 3/4 WCI  15
ALTOONA        LGT SNOW  22  18  85 SW8       30.44S FOG     WCI  12
STATE COLLEGE  LGT SNOW  19  16  86 SW9       30.45F FOG     WCI   9
WILLIAMSPORT   LGT SNOW  19  13  77 NE10      30.54S WCI   7
SELINSGROVE    CLOUDY    21  16  81 SW5       30.57S HAZE    WCI  15
FT INDIANTOWN  LGT SNOW  18  14  86 N1        30.59F FOG
CAPITAL CITY   LGT SNOW  21  18  88 SE3       30.59F VSB 3/4
HARRISBURG     LGT SNOW  22  18  85 SE7       30.59F VSB 3/4 WCI  13
YORK           LGT SNOW  22  18  85 CALM      30.58F VSB 3/4
$$

PAZ038>040-043-044-047-048-054-055-060>062-067>071-011500-
EASTERN PENNSYLVANIA

CITY           SKY/WX    TMP DP  RH WIND       PRES   REMARKS
SCRANTON       CLOUDY    18  13  80 CALM      30.52F HAZE
MOUNT POCONO   LGT SNOW  16   8  71 S12       30.45S WCI   3
ALLENTOWN      CLOUDY    20   7  57 NE5       30.60F WCI  13
QUAKERTOWN*    PTSUNNY   23   7  50 CALM      30.59F
READING        LGT SNOW  21   9  59 N3        30.59F
LANCASTER      LGT SNOW  22  15  75 SW8       30.59F VSB 1   WCI  12
COATESVILLE    FLURRIES  25   9  50 S6        30.58F
POTTSTOWN      CLOUDY    22  10  60 VRB3      30.61F
BLUE BELL      PTSUNNY   28  12  50 CALM      30.60F
DOYLESTOWN     CLOUDY    21   6  52 VRB5      30.59F WCI  15
WILLOW GROVE   NOT AVBL
NORTH PHILA    CLOUDY    27   9  46 SE6       30.65F
PHILADELPHIA   CLOUDY    26   9  48 S5        30.66F
$$


USA.gov is the U.S. government's official web portal to all federal, state and local government web resources and services.